Location: Peebles
(55.6412°N, 3.1714°W)
Time: 00:28:10
(UTC+01:00)

Daily predictions for brighter satellites

Satellite Brightness Start Highest point End
(mag) Time Altitude Azimuth Time Altitude Azimuth Time Altitude Azimuth
Cosmos 1328 3.8 00:01:20 12° S 00:05:01 73° E 00:09:00 10° NNE
CZ-4C R/B 3.9 00:01:25 11° SE 00:05:06 49° ENE 00:08:48 10° N
SAR-Lupe-1 4.4 00:05:06 13° S 00:08:13 61° WSW 00:11:48 10° NNW
Lacrosse 5 1.8 00:05:33 10° SW 00:10:33 67° SSE 00:15:37 10° ENE
CENTAUR R/B 3.2 00:03:48 10° NW 00:11:25 70° SW 00:19:48 10° SE
Aureole 3 Rocket 4.1 00:03:43 10° S 00:11:26 79° E 00:16:53 10° NNE
Cosmos 2074 Rocket 4.1 00:05:14 10° N 00:11:31 75° ENE 00:17:18 12° SSE
CZ-4 R/B 4.2 00:08:20 10° NNE 00:13:08 53° E 00:17:16 13° S
Cosmos 1455 2.1 00:10:01 10° NNW 00:13:48 87° W 00:16:57 14° S
Cosmos 1626 2.2 00:12:44 11° SSW 00:16:21 79° WNW 00:20:07 10° N
ADEOS Rocket 3.6 00:11:32 10° NNE 00:16:59 43° E 00:22:14 13° SSE
Cosmos 2058 3.7 00:17:17 14° SSE 00:20:33 39° E 00:24:25 10° NNE
Cosmos 2278 Rocket 2.2 00:15:58 10° SSW 00:21:37 71° ESE 00:27:18 10° NE
COSMOS 2487 3.8 00:24:19 10° NNW 00:27:38 35° NE 00:30:55 10° ESE
ALOS 2 2.6 00:28:17 14° SSE 00:32:00 80° WSW 00:36:26 10° NNW
Cosmos 2315 Rocket 4.3 00:27:43 10° SSW 00:34:02 70° WNW 00:40:25 10° N
NOSS 2-2 (D) 4.4 00:31:53 14° S 00:34:44 32° ESE 00:38:57 10° ENE
COBE Rocket 4.4 00:36:13 10° N 00:41:09 63° WNW 00:46:12 10° SSW
Orbus 7S? 4.3 00:44:24 15° SE 00:44:43 15° SE 00:46:32 10° E
Cosmos 1441 Rocket 3.4 00:42:02 10° NNW 00:45:51 61° W 00:48:46 16° S
Cosmos 2184 Rocket 4.2 00:39:48 10° NNW 00:46:10 72° W 00:51:43 14° S
Meteor 2-14 Rocket 4.5 00:40:54 10° N 00:47:02 82° ENE 00:52:26 13° SSE
ATLAS 3B R/B 4.4 00:45:36 10° WNW 00:49:37 17° WSW 00:53:37 10° SW
Cosmos 1844 Rocket 4.0 00:44:26 10° WSW 00:49:48 41° NW 00:55:09 10° NNE
Cosmos 1766 Rocket 3.7 00:46:14 13° SSW 00:50:16 76° WNW 00:54:47 10° N
Cosmos 1461 3.2 00:45:46 10° SSW 00:50:26 65° SE 00:55:12 10° NE
SL-8 R/B 4.4 00:47:11 10° SW 00:51:26 31° SSE 00:55:41 10° ESE
Cosmos 2154 Rocket 4.1 00:46:21 10° N 00:52:46 83° E 00:58:27 13° SSE
Cosmos 1408 Rocket 3.6 00:48:55 14° SSW 00:52:48 85° WNW 00:57:19 10° N
Cosmos 1515 Rocket 3.6 00:48:31 10° NNW 00:52:56 78° W 00:56:32 15° S
Cosmos 405 Rocket 2.8 00:49:21 10° NNW 00:53:03 64° W 00:55:50 16° S
Meteor 2-21 4.5 00:47:00 10° NNW 00:53:04 79° W 00:58:20 14° S
Cosmos 2369 Rocket 4.1 00:51:08 10° SE 00:54:32 16° E 00:57:56 10° ENE
Cosmos 371 Rocket 3.3 00:49:47 10° NNW 00:54:40 89° SW 00:59:04 13° SSE
Cosmos 1151 Rocket 3.1 00:50:52 10° NNW 00:55:11 74° W 00:58:36 16° S
Meteor 2-10 Rocket 3.5 00:52:06 10° NNW 00:57:12 85° WSW 01:01:38 14° S
EP 1 4.2 00:56:19 13° SW 00:58:28 62° SE 01:01:11 10° NE
NOSS 2-2 (C) 3.8 00:57:14 13° SSW 01:00:38 49° SE 01:05:17 10° NE
Cosmos 2297 3.9 00:55:50 13° SSW 01:00:55 61° ESE 01:06:35 10° NE
Cosmos 1869 3.3 00:57:41 10° NNW 01:01:42 81° WSW 01:04:50 16° S
Cosmos 2082 Rocket 3.2 00:57:07 10° NW 01:02:12 33° WSW 01:06:32 13° SSW
Cosmos 2341 Rocket 4.2 00:56:37 10° N 01:02:58 71° ENE 01:08:55 12° SSE
SL-19 R/B 4.3 00:57:23 10° NNE 01:03:05 79° WNW 01:08:20 11° SSW
H-2A R/B 2.2 01:02:36 16° S 01:05:47 56° WSW 01:09:51 10° NNW
RESURS DK-1 2.7 01:02:38 15° SSW 01:05:53 52° ESE 01:09:55 10° NE
SL-27 R/B 4.2 01:03:33 10° NW 01:06:25 22° WSW 01:08:46 12° SSW
Cosmos 1703 4.0 01:04:11 11° SSW 01:07:47 47° WNW 01:11:36 10° N
Cosmos 1833 Rocket 4.0 01:07:16 10° NW 01:11:50 26° WSW 01:15:57 12° SSW
Cosmos 2228 Rocket 3.5 01:08:12 10° NNW 01:12:38 55° W 01:16:10 15° S
ATLAS 5 CENTAUR R/B 1.9 01:09:33 11° SSW 01:13:59 59° SE 01:19:06 10° NE
Mayak -1.0 01:09:57 10° N 01:14:07 66° WNW 01:17:50 13° SSW
deb Chang Zheng 4 3.9 01:13:01 10° NNE 01:17:22 56° ESE 01:20:51 15° S
ATLAS 2AS CENTAUR R/B 3.6 01:10:54 10° WSW 01:18:56 64° NNW 01:26:59 10° NE
Cosmos 332 Rocket 4.1 01:17:38 10° NW 01:22:28 56° WSW 01:26:27 15° S
SL-8 Rocket 4.3 01:17:21 10° N 01:23:38 68° ENE 01:29:48 11° SSE
CZ-2C R/B 4.4 01:19:27 10° N 01:24:09 29° NW 01:28:46 10° WSW
CZ-4B R/B 3.8 01:29:26 10° NNE 01:34:44 73° WNW 01:39:38 12° SSW
Cosmos 2151 3.5 01:31:01 13° SSW 01:34:45 55° WNW 01:38:57 10° N
Cosmos 1689 Rocket 4.4 01:32:45 10° ESE 01:35:08 21° ENE 01:37:31 10° NNE
Timation 2 Rocket 4.2 01:32:23 10° NW 01:38:56 66° WSW 01:45:41 10° SSE
Nadezhda 1 Rocket 4.3 01:36:43 12° SSW 01:42:42 66° WNW 01:49:05 10° N
Cosmos 1743 Rocket 4.0 01:40:12 13° SSW 01:44:03 55° WNW 01:48:25 10° N
Cosmos 1943 Rocket 3.5 01:41:26 11° SSE 01:45:51 28° ESE 01:50:30 10° NE
Cosmos 1818 3.8 01:41:52 10° NW 01:47:24 78° NE 01:52:53 10° SE
Cosmos 2208 Rocket 4.3 01:42:32 10° NNW 01:47:55 74° ENE 01:53:19 10° SE
USA 229 DEB 4.4 01:42:35 10° NW 01:49:34 61° NNE 01:56:48 10° ESE
USA 229 4.5 01:42:41 10° NW 01:49:40 61° NNE 01:56:54 10° ESE
Cosmos 2366 rocket 4.1 01:43:38 10° N 01:49:51 78° ENE 01:56:00 10° SSE
MOS 1 Rocket 3.7 01:45:10 10° NNE 01:50:17 62° E 01:54:27 14° S
CZ-2D R/B 4.4 01:47:30 10° NE 01:50:29 15° E 01:53:30 10° ESE
Cosmos 1825 4.4 01:49:22 10° SE 01:52:00 18° E 01:54:38 10° NE
Cosmos 1805 Rocket 3.7 01:49:35 14° S 01:53:13 67° E 01:57:37 10° NNE
Lacrosse 5 2.1 01:48:31 10° W 01:53:36 77° N 01:58:41 10° E
Cosmos 1933 3.3 01:49:44 10° NNW 01:53:48 86° WSW 01:57:16 14° S
Cosmos 1241 Rocket 4.5 01:48:43 10° SW 01:54:56 85° SE 02:01:17 10° NE
NOSS 2-2 (E) 3.9 01:50:55 10° WSW 01:55:05 75° NW 02:00:24 10° NE
NOSS 3-4 (A) 3.8 01:48:50 10° WSW 01:55:07 75° NNW 02:01:52 10° NE
NOSS 3-4 (C) 3.8 01:48:54 10° WSW 01:55:12 75° NNW 02:01:58 10° NE
SL-16 R/B 3.6 01:49:48 10° SE 01:55:36 45° ENE 02:01:25 10° N
Cosmos 2058 4.4 01:53:54 10° SW 01:57:34 29° WNW 02:01:15 10° N
Cosmos 468 Rocket 4.2 01:52:37 10° NNW 01:57:47 74° ENE 02:02:55 10° SE
Cosmos 1862 Rocket 4.4 01:53:59 10° N 01:58:22 48° ENE 02:02:43 10° SSE
Cosmos 1140 Rocket 3.6 01:55:35 14° SSW 02:00:00 69° ESE 02:05:08 10° NNE
CENTAUR R/B 4.3 01:55:09 10° WNW 02:01:16 25° WSW 02:07:09 12° SSW
Cosmos 676 Rocket 4.0 01:57:26 13° SSW 02:02:01 79° ESE 02:07:13 10° NNE
Cosmos 1954 Rocket 4.1 01:57:59 14° SSW 02:02:28 71° ESE 02:07:38 10° NNE
Sich 1 3.4 01:58:52 13° S 02:02:37 59° E 02:06:59 10° NNE
ADEOS Rocket 3.7 01:57:15 10° N 02:02:38 46° WNW 02:08:27 10° SW
COSMOS 2487 3.7 01:59:47 10° NW 02:02:50 27° WSW 02:05:03 15° SSW
NOSS 2 (F) 4.3 02:00:24 10° NW 02:03:18 86° SSW 02:06:11 10° SE
Cosmos 1408 4.3 02:01:36 10° SSE 02:04:44 26° E 02:07:52 10° NNE
USA 234 3.5 01:58:31 10° ENE 02:04:53 51° SE 02:11:14 10° SW
Cosmos 2278 Rocket 3.7 02:00:59 10° WSW 02:06:11 35° NW 02:11:24 10° NNE
NOSS 8 (F) 4.4 02:06:31 13° SW 02:09:12 64° SE 02:12:44 10° NE
CZ-4B R/B 1.6 02:06:46 10° SSE 02:09:50 60° ENE 02:12:54 10° N
Cosmos 1707 Rocket 3.7 02:05:30 10° NNW 02:09:53 61° W 02:13:41 13° S
Cosmos 407 Rocket 3.8 02:05:10 10° SW 02:10:16 65° WNW 02:15:29 10° NNE
Cosmos 614 Rocket 4.0 02:06:54 13° SSW 02:11:34 85° ESE 02:16:44 10° NNE
Cosmos 1782 3.9 02:09:48 10° N 02:13:38 42° ENE 02:17:25 10° SE
Cosmos 1892 2.7 02:11:12 14° S 02:14:22 79° E 02:18:10 10° NNE
USA 102 4.3 02:17:12 10° E 02:18:23 23° NNE 02:21:29 10° NNW
SL-08 R/B 4.5 02:13:28 10° NNW 02:19:37 79° W 02:25:44 10° S
Cosmos 1633 Rocket 3.3 02:17:25 12° S 02:21:26 67° E 02:25:51 10° NNE
SL-24 R/B 4.4 02:17:03 10° NNE 02:21:37 82° WNW 02:26:28 12° SSW
Resurs 1-4 Rocket 3.8 02:19:34 10° NE 02:24:01 26° E 02:28:26 10° SSE
Cosmos 1570 Rocket 4.2 02:19:01 10° NNW 02:24:15 60° WSW 02:29:25 10° S
Meteor 2-3 Rocket 4.2 02:18:58 10° S 02:24:32 59° E 02:30:15 10° NNE
NOSS 2-2 (D) 4.3 02:20:56 10° WSW 02:25:05 60° NNW 02:30:20 10° NE
CZ-4C R/B 3.5 02:22:04 13° S 02:25:08 50° W 02:28:46 10° NNW
Cosmos 2297 Rocket 4.3 02:20:53 10° NNW 02:25:54 31° NE 02:30:54 10° E
Cosmos 304 Rocket 4.3 02:21:26 10° NW 02:25:56 41° WSW 02:30:09 11° S
Cosmos 1470 Rocket 4.4 02:23:02 10° SSE 02:27:18 44° E 02:31:34 10° NNE
UNK 4.5 02:23:35 10° SE 02:28:08 54° ENE 02:32:42 10° N
CRYOSAT 2 4.4 02:24:27 10° S 02:29:22 85° E 02:34:17 10° N
PSLV R/B 3.8 02:24:54 10° NNE 02:29:37 84° WNW 02:34:04 12° SSW
Cosmos 1461 4.5 02:25:21 10° W 02:29:53 42° NNW 02:34:28 10° NE
COSMOS 2455 3.1 02:25:35 10° NW 02:31:40 78° NE 02:37:42 10° SE
SL-8 R/B 4.3 02:28:57 10° WSW 02:33:19 34° S 02:37:40 10° ESE
Cosmos 2227 Rocket 4.1 02:29:02 10° NNW 02:34:14 35° NE 02:39:25 10° ESE
Cosmos 2369 Rocket 2.3 02:32:17 12° SSW 02:37:38 73° ESE 02:43:17 10° NE
Landsat 5 3.6 02:37:13 11° S 02:40:46 52° WSW 02:44:35 10° NNW
Genesis I 4.1 02:37:18 10° NW 02:41:22 56° NE 02:45:24 10° ESE
RESURS DK-1 3.9 02:40:23 10° WSW 02:44:08 32° NW 02:47:55 10° NNE
Cosmos 1666 Rocket 3.7 02:40:08 12° SSW 02:44:10 68° WNW 02:48:31 10° N
Cosmos 1850 Rocket 4.1 02:39:52 11° SSW 02:44:50 74° ESE 02:50:06 10° NNE
Mayak 1.3 02:47:03 10° NNW 02:49:00 13° NW 02:50:55 10° WNW
Cosmos 1933 Rocket 4.0 02:45:18 10° S 02:49:33 58° E 02:53:53 10° NNE
Cosmos 1821 Rocket 4.2 02:44:08 10° N 02:50:27 81° ENE 02:56:49 10° SSE
NOSS 8 (H) 4.5 02:47:25 10° SW 02:50:43 88° NW 02:54:34 10° NE
ARIANE 5 R/B 4.2 02:51:27 10° NE 02:55:41 27° E 02:59:52 10° SSE
GP-B 3.2 02:51:38 10° N 02:56:08 88° E 03:00:35 10° S
ATLAS 5 CENTAUR R/B 2.9 02:54:07 10° W 02:58:50 49° NNW 03:04:10 10° NE
Cosmos 292 Rocket 3.8 02:55:27 10° NNW 03:00:16 75° WSW 03:05:05 10° SSE
Cosmos 2242 Rocket 4.0 02:56:42 10° NNW 03:01:04 49° W 03:05:22 10° SSW
Cosmos 1763 Rocket 3.6 02:57:43 10° NNW 03:02:43 58° WSW 03:07:40 10° S
NOSS 3-1 (C) 4.2 02:59:14 10° NW 03:06:20 80° NE 03:14:30 10° ESE
Cosmos 1689 Rocket 3.1 03:03:55 10° SSW 03:06:43 33° W 03:09:32 10° NNW
Lacrosse 4 Rocket 3.1 03:04:42 10° S 03:08:22 26° ESE 03:12:07 10° ENE
Cosmos 2221 Rocket 4.4 03:04:32 10° N 03:08:54 52° ENE 03:13:14 10° SSE
SL-08 R/B 3.3 03:05:25 10° S 03:10:09 74° WSW 03:14:51 10° NNW
ATLAS 2AS CENTAUR R/B 4.2 03:03:24 10° WNW 03:11:16 48° N 03:18:53 10° ENE
USA 102 3.3 03:11:47 12° W 03:12:23 15° WNW 03:14:21 10° NW
Cosmos 2263 4.2 03:07:57 10° SSW 03:13:34 90° NNE 03:19:14 10° NE
Cosmos 1606 3.5 03:12:57 10° NNW 03:16:29 37° W 03:20:02 10° SSW
Cosmos 1656 Rocket 4.2 03:11:00 10° S 03:16:30 53° ESE 03:21:57 10° NE
Cosmos 1814 Rocket 4.3 03:12:46 10° NW 03:17:56 51° WSW 03:23:00 10° S
Meteor 2-6 Rocket 4.2 03:13:02 10° NNW 03:18:24 68° W 03:23:45 10° S
NPP 3.8 03:15:01 10° NNE 03:20:28 79° ESE 03:25:52 10° SSW
Cosmos 540 Rocket 3.5 03:17:33 10° NNW 03:22:44 85° WSW 03:27:51 10° SSE
MOZ.5/SAFIR/RUBIN 5/SL-8 3.8 03:19:45 10° SSE 03:24:27 79° WSW 03:29:08 10° NNW
Cosmos 1869 Rocket 4.5 03:20:57 10° SSE 03:25:06 46° E 03:29:20 10° NNE
Cosmos 1825 2.5 03:23:30 10° SSW 03:27:12 54° WNW 03:30:57 10° N
Spot 2 4.4 03:24:40 10° N 03:29:09 58° WNW 03:33:21 10° SW
Cosmos 1943 Rocket 2.4 03:23:37 10° SW 03:29:09 72° NW 03:34:48 10° NNE
Cosmos 1741 Rocket 4.4 03:24:35 10° SW 03:29:49 60° WNW 03:35:04 10° NNE
Cosmos 1818 4.5 03:25:52 10° WNW 03:30:35 30° WSW 03:35:16 10° S
CZ-2D R/B 2.3 03:26:12 10° NNE 03:31:29 74° ESE 03:36:50 10° S
Cosmos 841 Rocket 3.8 03:26:51 10° NW 03:31:55 49° WSW 03:36:54 10° S
